Precipitable_Water
0.23 0.17 0.16 0.17 0.18 0.18 0.18 0.17 0.15 0.16 0.16 0.14 0.14 0.12 0.11 0.10 0.10 0.10 0.11 0.12 0.12 0.12 0.14 0.18 0.20 0.18 0.20 0.21 0.21 0.19 0.18 0.19 0.21 0.21 0.22 0.26 0.26 0.27 0.28 0.28 0.31 0.37 0.40 0.46 0.70 0.88 0.92 1.03 1.05 1.15 1.21 1.19 1.32 1.41 1.49 1.51 1.42 1.34 1.27 1.29 1.28 1.36 1.44 1.46 1.42 1.43 1.41 1.32 1.34 1.34 1.30 1.28 1.36 1.34 1.33 1.29 1.28 1.30 1.33 1.34 1.34 1.27 1.26 1.06 1.20 1.13
0.24 0.17 0.15 0.17 0.18 0.17 0.17 0.17 0.16 0.15 0.18 0.17 0.14 0.12 0.10 0.10 0.09 0.10 0.10 0.11 0.10 0.11 0.12 0.17 0.20 0.19 0.22 0.23 0.21 0.21 0.19 0.16 0.18 0.21 0.21 0.21 0.25 0.28 0.27 0.27 0.27 0.33 0.37 0.44 0.56 0.90 0.97 1.10 1.11 1.16 1.13 1.12 1.11 1.30 1.47 1.50 1.49 1.40 1.33 1.27 1.30 1.35 1.39 1.43 1.42 1.43 1.43 1.37 1.33 1.28 1.26 1.31 1.33 1.33 1.27 1.24 1.28 1.29 1.31 1.31 1.29 1.25 1.24 1.15 1.20 1.15
0.19 0.16 0.18 0.21 0.24 0.24 0.23 0.21 0.20 0.18 0.16 0.15 0.13 0.12 0.11 0.10 0.11 0.11 0.11 0.11 0.11 0.11 0.12 0.14 0.16 0.19 0.21 0.22 0.22 0.21 0.19 0.18 0.18 0.21 0.22 0.21 0.21 0.25 0.29 0.28 0.28 0.31 0.37 0.41 0.54 0.80 1.02 1.22 1.23 1.22 1.20 1.23 1.20 1.20 1.29 1.37 1.33 1.38 1.35 1.34 1.33 1.35 1.37 1.41 1.42 1.42 1.40 1.39 1.40 1.36 1.34 1.35 1.33 1.38 1.36 1.26 1.26 1.31 1.30 1.27 1.28 1.23 1.22 1.15 1.20 1.16
0.18 0.20 0.25 0.27 0.27 0.25 0.24 0.23 0.21 0.19 0.16 0.14 0.13 0.11 0.10 0.11 0.10 0.09 0.13 0.14 0.14 0.12 0.10 0.12 0.14 0.16 0.18 0.20 0.21 0.22 0.21 0.22 0.21 0.20 0.21 0.23 0.21 0.22 0.28 0.30 0.30 0.34 0.36 0.39 0.51 0.63 0.81 1.02 1.22 1.28 1.19 1.16 1.20 1.21 1.25 1.30 1.29 1.32 1.36 1.34 1.30 1.36 1.40 1.43 1.42 1.39 1.47 1.45 1.44 1.45 1.43 1.43 1.36 1.28 1.33 1.27 1.27 1.26 1.26 1.25 1.29 1.25 1.23 1.15 1.19 1.14
0.18 0.20 0.24 0.23 0.23 0.22 0.20 0.21 0.21 0.19 0.17 0.17 0.15 0.13 0.12 0.11 0.12 0.12 0.13 0.14 0.14 0.14 0.16 0.17 0.13 0.12 0.15 0.16 0.17 0.19 0.22 0.21 0.19 0.20 0.22 0.22 0.22 0.21 0.25 0.30 0.33 0.38 0.38 0.38 0.48 0.58 0.63 0.86 0.93 1.06 1.05 1.06 1.08 1.15 1.18 1.20 1.21 1.23 1.28 1.32 1.32 1.33 1.37 1.45 1.45 1.42 1.46 1.46 1.45 1.44 1.45 1.44 1.35 1.30 1.24 1.21 1.18 1.19 1.21 1.24 1.22 1.22 1.22 1.13 1.22 1.12
0.21 0.25 0.27 0.25 0.23 0.21 0.20 0.19 0.20 0.20 0.17 0.16 0.16 0.16 0.16 0.15 0.14 0.15 0.17 0.16 0.13 0.13 0.13 0.16 0.14 0.13 0.13 0.14 0.16 0.18 0.19 0.18 0.19 0.19 0.20 0.22 0.21 0.21 0.25 0.30 0.37 0.39 0.40 0.39 0.42 0.63 0.59 0.77 0.87 0.95 1.02 1.01 1.01 1.07 1.18 1.16 1.15 1.18 1.21 1.30 1.36 1.38 1.43 1.46 1.49 1.46 1.45 1.40 1.40 1.34 1.28 1.21 1.17 1.10 1.11 1.07 1.07 1.10 1.12 1.15 1.22 1.24 1.20 1.18 1.21 1.13
0.21 0.24 0.25 0.23 0.24 0.23 0.22 0.21 0.22 0.21 0.19 0.17 0.17 0.19 0.17 0.15 0.15 0.14 0.14 0.14 0.12 0.11 0.13 0.15 0.13 0.13 0.17 0.15 0.14 0.15 0.16 0.16 0.17 0.18 0.18 0.21 0.23 0.23 0.24 0.31 0.39 0.40 0.38 0.38 0.41 0.46 0.67 0.89 0.93 0.99 1.02 1.03 1.04 1.10 1.23 1.21 1.18 1.20 1.21 1.27 1.35 1.38 1.39 1.45 1.50 1.50 1.47 1.41 1.42 1.35 1.29 1.25 1.19 1.11 1.13 1.20 1.21 1.15 1.18 1.24 1.21 1.20 1.20 1.23 1.20 1.13
0.28 0.27 0.26 0.26 0.25 0.23 0.22 0.22 0.23 0.23 0.20 0.17 0.21 0.21 0.20 0.18 0.16 0.16 0.17 0.14 0.12 0.13 0.13 0.14 0.14 0.13 0.14 0.17 0.18 0.18 0.16 0.17 0.17 0.16 0.17 0.19 0.23 0.25 0.26 0.29 0.31 0.34 0.37 0.37 0.38 0.41 0.60 0.94 0.94 1.03 1.12 1.14 1.16 1.22 1.25 1.22 1.21 1.16 1.16 1.24 1.32 1.37 1.41 1.45 1.46 1.48 1.49 1.40 1.42 1.38 1.32 1.27 1.22 1.15 1.12 1.18 1.19 1.20 1.20 1.21 1.21 1.21 1.18 1.22 1.21 1.18
0.29 0.27 0.27 0.27 0.28 0.26 0.24 0.25 0.27 0.28 0.23 0.22 0.23 0.24 0.22 0.21 0.19 0.18 0.17 0.16 0.14 0.14 0.12 0.13 0.14 0.12 0.12 0.14 0.17 0.18 0.17 0.17 0.16 0.17 0.16 0.17 0.22 0.26 0.28 0.29 0.30 0.33 0.35 0.37 0.37 0.37 0.61 0.86 0.99 1.11 1.15 1.22 1.22 1.26 1.26 1.22 1.17 1.16 1.18 1.26 1.35 1.41 1.37 1.44 1.48 1.45 1.46 1.44 1.46 1.43 1.34 1.23 1.22 1.21 1.20 1.23 1.26 1.21 1.22 1.19 1.22 1.21 1.19 1.23 1.20 1.22
0.33 0.34 0.33 0.32 0.29 0.26 0.30 0.31 0.31 0.29 0.25 0.26 0.27 0.26 0.24 0.23 0.21 0.20 0.19 0.17 0.17 0.14 0.10 0.11 0.11 0.10 0.10 0.12 0.13 0.14 0.15 0.17 0.17 0.17 0.17 0.17 0.16 0.21 0.27 0.31 0.32 0.32 0.35 0.35 0.36 0.40 0.42 0.83 0.96 1.03 1.19 1.23 1.21 1.19 1.25 1.24 1.17 1.12 1.19 1.25 1.33 1.37 1.36 1.35 1.46 1.43 1.38 1.41 1.48 1.47 1.38 1.25 1.19 1.22 1.24 1.23 1.21 1.20 1.20 1.18 1.18 1.20 1.19 1.21 1.22 1.21
0.40 0.44 0.45 0.40 0.34 0.35 0.34 0.34 0.34 0.33 0.31 0.31 0.29 0.25 0.24 0.23 0.21 0.21 0.20 0.19 0.18 0.14 0.12 0.13 0.13 0.12 0.10 0.12 0.12 0.12 0.12 0.15 0.18 0.17 0.17 0.17 0.16 0.16 0.19 0.26 0.28 0.29 0.33 0.35 0.37 0.40 0.44 0.48 1.06 1.00 1.03 1.10 1.10 1.16 1.22 1.22 1.14 1.13 1.16 1.18 1.23 1.31 1.33 1.37 1.42 1.36 1.24 1.28 1.37 1.46 1.43 1.32 1.20 1.21 1.23 1.16 1.16 1.17 1.14 1.13 1.15 1.17 1.20 1.23 1.24 1.24
0.41 0.41 0.40 0.44 0.43 0.41 0.40 0.37 0.37 0.35 0.33 0.31 0.28 0.26 0.24 0.22 0.23 0.21 0.20 0.21 0.16 0.12 0.13 0.16 0.15 0.14 0.11 0.11 0.11 0.14 0.15 0.15 0.16 0.18 0.18 0.18 0.16 0.16 0.16 0.16 0.26 0.30 0.31 0.33 0.37 0.40 0.44 0.46 0.73 1.02 0.99 0.99 1.07 1.11 1.18 1.20 1.16 1.10 1.11 1.16 1.18 1.30 1.40 1.37 1.38 1.31 1.26 1.25 1.32 1.41 1.47 1.38 1.25 1.23 1.24 1.15 1.12 1.14 1.08 1.11 1.11 1.17 1.22 1.23 1.27 1.27
0.34 0.35 0.40 0.39 0.45 0.40 0.37 0.35 0.36 0.36 0.34 0.31 0.28 0.27 0.21 0.18 0.19 0.16 0.18 0.16 0.15 0.11 0.14 0.19 0.18 0.15 0.13 0.13 0.14 0.14 0.14 0.15 0.16 0.17 0.19 0.20 0.20 0.20 0.18 0.20 0.23 0.23 0.24 0.25 0.31 0.35 0.41 0.46 0.50 0.95 1.01 1.01 0.98 1.02 1.13 1.17 1.19 1.14 1.10 1.12 1.20 1.29 1.38 1.29 1.22 1.26 1.30 1.28 1.28 1.33 1.44 1.43 1.33 1.28 1.28 1.21 1.18 1.17 1.12 1.12 1.11 1.13 1.16 1.22 1.22 1.24
0.33 0.38 0.36 0.40 0.40 0.46 0.42 0.31 0.31 0.30 0.33 0.32 0.29 0.26 0.22 0.18 0.17 0.14 0.15 0.18 0.17 0.18 0.19 0.20 0.22 0.17 0.16 0.18 0.19 0.16 0.15 0.16 0.17 0.19 0.17 0.20 0.21 0.22 0.21 0.20 0.20 0.23 0.24 0.24 0.29 0.36 0.36 0.36 0.47 0.71 0.88 0.97 1.09 1.10 1.08 1.14 1.17 1.18 1.16 1.12 1.16 1.23 1.26 1.17 1.15 1.19 1.30 1.32 1.30 1.33 1.43 1.47 1.38 1.30 1.30 1.25 1.21 1.19 1.18 1.17 1.12 1.12 1.14 1.18 1.21 1.24
0.24 0.25 0.31 0.36 0.36 0.47 0.42 0.37 0.36 0.33 0.32 0.32 0.34 0.32 0.26 0.24 0.19 0.16 0.16 0.14 0.16 0.17 0.20 0.22 0.18 0.15 0.15 0.16 0.21 0.20 0.19 0.17 0.17 0.18 0.20 0.20 0.18 0.21 0.25 0.25 0.23 0.21 0.24 0.25 0.27 0.35 0.37 0.37 0.39 0.52 0.94 0.97 0.94 1.07 1.08 1.09 1.14 1.16 1.16 1.12 1.09 1.16 1.22 1.13 1.12 1.21 1.29 1.33 1.33 1.35 1.46 1.52 1.42 1.35 1.32 1.28 1.27 1.24 1.20 1.19 1.15 1.15 1.21 1.23 1.26 1.29
0.30 0.28 0.36 0.44 0.43 0.44 0.41 0.43 0.41 0.34 0.31 0.33 0.34 0.35 0.29 0.25 0.31 0.22 0.22 0.21 0.20 0.21 0.20 0.21 0.17 0.17 0.16 0.17 0.18 0.19 0.20 0.20 0.18 0.16 0.17 0.18 0.19 0.19 0.21 0.24 0.26 0.25 0.24 0.26 0.29 0.34 0.39 0.40 0.39 0.42 0.94 1.01 1.01 0.95 1.01 1.02 1.11 1.09 1.11 1.10 1.06 1.12 1.22 1.14 1.09 1.19 1.32 1.37 1.36 1.34 1.45 1.54 1.47 1.41 1.35 1.32 1.30 1.28 1.26 1.21 1.18 1.16 1.22 1.28 1.32 1.35
0.31 0.26 0.39 0.41 0.43 0.42 0.41 0.44 0.42 0.40 0.25 0.31 0.32 0.27 0.28 0.34 0.32 0.27 0.25 0.26 0.26 0.24 0.17 0.20 0.20 0.19 0.23 0.24 0.20 0.19 0.20 0.19 0.20 0.20 0.18 0.17 0.18 0.19 0.21 0.22 0.25 0.26 0.24 0.27 0.32 0.36 0.43 0.45 0.45 0.42 0.65 0.93 0.93 0.97 0.95 0.99 1.01 1.04 1.11 1.12 1.07 1.16 1.29 1.10 1.04 1.15 1.31 1.39 1.36 1.36 1.49 1.55 1.48 1.39 1.31 1.27 1.25 1.27 1.28 1.25 1.22 1.20 1.23 1.30 1.35 1.34
0.29 0.25 0.39 0.37 0.34 0.41 0.44 0.43 0.42 0.43 0.42 0.37 0.28 0.31 0.37 0.39 0.35 0.28 0.20 0.21 0.21 0.17 0.15 0.20 0.17 0.17 0.18 0.16 0.19 0.18 0.18 0.19 0.19 0.20 0.20 0.17 0.17 0.18 0.21 0.24 0.26 0.26 0.26 0.25 0.29 0.38 0.44 0.49 0.48 0.49 0.48 0.83 0.94 0.93 0.98 1.00 0.95 0.98 1.07 1.11 1.10 1.14 1.22 1.09 1.07 1.14 1.17 1.28 1.34 1.46 1.51 1.54 1.50 1.38 1.31 1.30 1.28 1.29 1.27 1.25 1.23 1.24 1.23 1.26 1.33 1.35
0.43 0.24 0.30 0.37 0.37 0.38 0.41 0.41 0.39 0.43 0.46 0.37 0.34 0.44 0.32 0.26 0.23 0.27 0.25 0.16 0.16 0.15 0.15 0.17 0.18 0.19 0.20 0.17 0.18 0.16 0.16 0.17 0.19 0.20 0.21 0.19 0.16 0.18 0.20 0.23 0.25 0.26 0.30 0.29 0.29 0.33 0.40 0.46 0.48 0.48 0.50 0.81 0.80 0.89 0.95 0.92 0.90 0.95 1.01 1.09 1.10 1.08 1.15 1.11 1.09 1.13 1.22 1.25 1.28 1.41 1.52 1.55 1.51 1.40 1.32 1.30 1.32 1.30 1.25 1.23 1.21 1.20 1.22 1.25 1.32 1.33
0.44 0.29 0.24 0.37 0.36 0.39 0.37 0.36 0.27 0.33 0.42 0.43 0.43 0.37 0.42 0.38 0.31 0.25 0.25 0.25 0.22 0.16 0.16 0.14 0.18 0.16 0.18 0.19 0.19 0.16 0.17 0.17 0.18 0.20 0.20 0.21 0.18 0.18 0.18 0.19 0.23 0.26 0.29 0.38 0.36 0.35 0.37 0.40 0.43 0.45 0.46 0.92 0.87 0.85 0.87 0.85 0.90 0.92 1.01 1.10 1.07 1.09 1.18 1.18 1.09 1.12 1.20 1.28 1.30 1.33 1.51 1.56 1.56 1.45 1.33 1.28 1.27 1.24 1.22 1.24 1.22 1.22 1.22 1.24 1.31 1.33
0.38 0.44 0.24 0.30 0.41 0.40 0.30 0.35 0.32 0.35 0.33 0.34 0.35 0.34 0.36 0.35 0.38 0.34 0.31 0.24 0.21 0.18 0.18 0.16 0.15 0.16 0.20 0.23 0.20 0.17 0.17 0.17 0.18 0.18 0.20 0.22 0.22 0.20 0.20 0.19 0.20 0.24 0.29 0.33 0.38 0.45 0.46 0.45 0.45 0.48 0.49 0.63 0.97 0.93 0.91 0.87 0.90 0.93 0.95 1.03 1.07 1.01 1.06 1.11 1.09 1.08 1.22 1.29 1.32 1.35 1.45 1.48 1.50 1.46 1.39 1.31 1.27 1.23 1.23 1.24 1.25 1.23 1.26 1.28 1.30 1.34
0.39 0.38 0.29 0.32 0.31 0.31 0.33 0.39 0.39 0.39 0.39 0.37 0.34 0.32 0.36 0.33 0.29 0.24 0.20 0.26 0.23 0.21 0.15 0.17 0.16 0.19 0.24 0.25 0.21 0.22 0.21 0.18 0.19 0.20 0.20 0.22 0.24 0.25 0.27 0.31 0.22 0.21 0.26 0.33 0.35 0.41 0.46 0.53 0.51 0.50 0.52 0.53 0.79 0.84 0.85 0.87 0.91 0.93 0.94 0.94 1.04 1.06 0.99 1.01 1.09 1.11 1.22 1.28 1.31 1.38 1.46 1.48 1.51 1.48 1.41 1.33 1.26 1.21 1.21 1.22 1.23 1.24 1.27 1.25 1.31 1.35
0.48 0.43 0.37 0.30 0.32 0.33 0.37 0.42 0.45 0.45 0.44 0.42 0.39 0.34 0.37 0.32 0.32 0.26 0.18 0.18 0.20 0.20 0.26 0.23 0.20 0.18 0.28 0.27 0.26 0.21 0.21 0.21 0.23 0.25 0.27 0.28 0.29 0.31 0.30 0.34 0.37 0.23 0.22 0.25 0.31 0.36 0.40 0.42 0.46 0.49 0.51 0.53 0.84 0.87 0.90 0.95 0.90 0.90 0.88 0.92 0.98 1.01 0.98 0.99 1.08 1.12 1.17 1.25 1.26 1.35 1.46 1.49 1.47 1.47 1.44 1.37 1.28 1.20 1.21 1.23 1.25 1.28 1.24 1.25 1.29 1.36
0.53 0.39 0.32 0.33 0.37 0.39 0.42 0.47 0.46 0.48 0.45 0.40 0.39 0.38 0.34 0.28 0.31 0.29 0.26 0.24 0.20 0.19 0.17 0.18 0.17 0.19 0.29 0.29 0.26 0.27 0.28 0.28 0.29 0.30 0.29 0.31 0.35 0.32 0.30 0.32 0.39 0.41 0.23 0.24 0.24 0.26 0.33 0.35 0.36 0.41 0.44 0.47 0.55 0.86 0.96 0.95 0.98 0.95 1.00 1.01 1.01 1.07 1.07 1.04 1.09 1.14 1.20 1.30 1.30 1.35 1.45 1.47 1.46 1.46 1.46 1.39 1.33 1.22 1.22 1.25 1.26 1.28 1.26 1.25 1.29 1.30
0.38 0.40 0.36 0.28 0.28 0.30 0.35 0.41 0.41 0.47 0.46 0.41 0.35 0.35 0.35 0.35 0.35 0.34 0.32 0.30 0.21 0.18 0.20 0.20 0.14 0.18 0.28 0.32 0.30 0.26 0.29 0.29 0.29 0.32 0.33 0.34 0.37 0.35 0.33 0.32 0.35 0.42 0.31 0.25 0.25 0.26 0.28 0.29 0.30 0.34 0.44 0.44 0.42 0.52 0.86 0.86 0.91 0.99 0.94 0.93 0.98 1.02 1.14 1.17 1.12 1.15 1.20 1.26 1.28 1.32 1.40 1.44 1.46 1.43 1.42 1.42 1.37 1.28 1.26 1.28 1.28 1.28 1.26 1.26 1.26 1.30
0.44 0.41 0.37 0.27 0.23 0.21 0.21 0.23 0.27 0.32 0.38 0.42 0.40 0.36 0.37 0.36 0.34 0.32 0.26 0.23 0.18 0.17 0.22 0.20 0.19 0.23 0.28 0.30 0.28 0.30 0.32 0.32 0.34 0.32 0.33 0.38 0.38 0.37 0.37 0.39 0.41 0.43 0.32 0.26 0.27 0.29 0.31 0.31 0.30 0.32 0.38 0.41 0.40 0.48 0.75 0.88 0.91 0.90 0.86 0.87 0.96 0.98 1.07 1.20 1.25 1.23 1.21 1.25 1.27 1.30 1.33 1.42 1.42 1.40 1.39 1.40 1.40 1.35 1.32 1.31 1.28 1.27 1.27 1.27 1.25 1.27
0.44 0.45 0.42 0.39 0.34 0.31 0.34 0.37 0.44 0.46 0.42 0.36 0.35 0.36 0.36 0.40 0.40 0.36 0.33 0.26 0.17 0.20 0.21 0.23 0.24 0.23 0.25 0.26 0.27 0.31 0.32 0.32 0.32 0.32 0.33 0.34 0.35 0.39 0.43 0.45 0.50 0.55 0.37 0.30 0.30 0.35 0.36 0.33 0.31 0.34 0.40 0.47 0.44 0.45 0.76 0.85 0.90 0.94 0.88 0.81 0.83 0.92 1.03 1.09 1.13 1.24 1.30 1.25 1.26 1.32 1.35 1.39 1.40 1.41 1.41 1.43 1.43 1.42 1.40 1.36 1.32 1.29 1.27 1.28 1.27 1.26
0.45 0.39 0.42 0.43 0.42 0.42 0.44 0.44 0.46 0.47 0.40 0.40 0.37 0.34 0.37 0.37 0.38 0.35 0.29 0.22 0.25 0.23 0.17 0.23 0.26 0.24 0.23 0.26 0.32 0.30 0.34 0.34 0.33 0.32 0.33 0.35 0.36 0.43 0.50 0.51 0.53 0.47 0.46 0.45 0.38 0.40 0.40 0.38 0.40 0.43 0.48 0.53 0.54 0.49 0.78 0.87 0.92 0.92 0.90 0.83 0.81 0.79 0.88 1.02 1.04 1.19 1.28 1.28 1.22 1.29 1.35 1.40 1.44 1.43 1.41 1.42 1.47 1.46 1.44 1.41 1.36 1.30 1.30 1.30 1.27 1.25
0.43 0.37 0.43 0.44 0.42 0.45 0.48 0.47 0.48 0.47 0.45 0.43 0.39 0.38 0.36 0.38 0.34 0.30 0.29 0.30 0.28 0.22 0.17 0.22 0.26 0.25 0.26 0.31 0.30 0.27 0.33 0.32 0.32 0.33 0.35 0.38 0.41 0.48 0.52 0.51 0.50 0.50 0.49 0.51 0.53 0.44 0.42 0.39 0.42 0.45 0.48 0.50 0.53 0.54 0.65 0.82 0.87 0.95 0.99 0.98 0.98 0.93 0.89 0.93 1.04 1.22 1.29 1.28 1.20 1.22 1.31 1.37 1.42 1.44 1.44 1.45 1.47 1.47 1.44 1.40 1.36 1.32 1.31 1.30 1.28 1.27
0.47 0.41 0.44 0.45 0.41 0.43 0.45 0.47 0.48 0.46 0.45 0.45 0.43 0.44 0.41 0.39 0.37 0.35 0.32 0.31 0.29 0.26 0.26 0.26 0.27 0.27 0.31 0.30 0.30 0.31 0.33 0.31 0.35 0.35 0.35 0.39 0.42 0.45 0.49 0.47 0.46 0.45 0.52 0.58 0.60 0.55 0.45 0.42 0.42 0.45 0.46 0.47 0.48 0.52 0.58 0.78 0.83 0.93 0.98 0.96 0.97 0.99 1.00 1.03 1.02 1.08 1.29 1.27 1.21 1.19 1.25 1.31 1.35 1.40 1.45 1.46 1.44 1.45 1.45 1.40 1.36 1.32 1.29 1.28 1.28 1.26
0.47 0.38 0.46 0.44 0.40 0.38 0.43 0.47 0.48 0.47 0.45 0.40 0.44 0.44 0.42 0.42 0.39 0.39 0.39 0.36 0.33 0.30 0.28 0.27 0.27 0.26 0.30 0.33 0.31 0.31 0.32 0.32 0.34 0.34 0.38 0.42 0.43 0.44 0.48 0.47 0.45 0.45 0.56 0.57 0.58 0.60 0.58 0.53 0.49 0.45 0.42 0.45 0.51 0.63 0.76 0.87 0.87 0.81 0.89 0.98 0.98 0.96 1.01 1.03 1.03 1.03 1.23 1.27 1.31 1.22 1.21 1.26 1.31 1.36 1.39 1.44 1.47 1.47 1.44 1.41 1.37 1.33 1.29 1.29 1.28 1.27
0.51 0.42 0.49 0.44 0.37 0.34 0.42 0.44 0.46 0.46 0.44 0.41 0.39 0.40 0.41 0.40 0.34 0.36 0.36 0.41 0.37 0.31 0.32 0.28 0.24 0.24 0.28 0.31 0.31 0.30 0.30 0.29 0.33 0.34 0.36 0.41 0.44 0.45 0.44 0.45 0.44 0.42 0.42 0.45 0.51 0.54 0.55 0.56 0.57 0.56 0.53 0.50 0.56 0.65 0.73 0.79 0.91 0.97 0.94 0.99 0.95 0.96 1.05 1.09 1.10 1.10 1.16 1.32 1.38 1.23 1.21 1.23 1.30 1.34 1.39 1.44 1.46 1.46 1.45 1.42 1.37 1.32 1.29 1.27 1.27 1.27
0.48 0.46 0.42 0.41 0.35 0.33 0.40 0.46 0.44 0.41 0.39 0.33 0.35 0.40 0.43 0.44 0.44 0.42 0.43 0.44 0.44 0.42 0.31 0.24 0.25 0.31 0.29 0.32 0.30 0.29 0.28 0.27 0.28 0.29 0.32 0.37 0.40 0.42 0.42 0.42 0.42 0.40 0.39 0.42 0.46 0.49 0.51 0.51 0.53 0.54 0.55 0.58 0.60 0.61 0.63 0.69 0.80 0.89 0.93 0.96 1.02 1.02 0.97 0.97 1.04 1.05 1.00 1.14 1.24 1.30 1.24 1.23 1.25 1.29 1.33 1.37 1.42 1.45 1.44 1.41 1.38 1.34 1.30 1.27 1.28 1.27
0.49 0.46 0.43 0.48 0.35 0.34 0.40 0.43 0.45 0.34 0.25 0.27 0.45 0.51 0.48 0.43 0.43 0.38 0.35 0.37 0.41 0.43 0.36 0.38 0.36 0.37 0.36 0.32 0.31 0.32 0.30 0.28 0.30 0.31 0.32 0.33 0.36 0.38 0.39 0.42 0.41 0.38 0.37 0.39 0.43 0.45 0.47 0.50 0.52 0.53 0.53 0.55 0.59 0.62 0.64 0.63 0.66 0.81 1.02 0.98 1.03 1.09 1.05 1.03 1.02 1.02 1.00 1.10 1.27 1.30 1.27 1.25 1.25 1.29 1.32 1.36 1.39 1.40 1.40 1.40 1.37 1.35 1.33 1.32 1.30 1.25
0.46 0.46 0.43 0.48 0.38 0.34 0.39 0.40 0.33 0.25 0.27 0.44 0.52 0.54 0.52 0.51 0.49 0.42 0.40 0.42 0.44 0.45 0.43 0.40 0.40 0.40 0.45 0.45 0.41 0.34 0.35 0.35 0.34 0.34 0.34 0.34 0.33 0.34 0.37 0.38 0.37 0.37 0.37 0.38 0.40 0.43 0.44 0.45 0.49 0.51 0.52 0.53 0.54 0.57 0.61 0.66 0.66 0.70 0.85 1.02 1.07 1.09 1.10 1.12 1.12 1.08 1.07 1.13 1.19 1.26 1.24 1.23 1.28 1.28 1.29 1.32 1.33 1.33 1.34 1.35 1.36 1.35 1.34 1.31 1.26 1.21
0.45 0.41 0.44 0.42 0.41 0.40 0.36 0.35 0.24 0.25 0.42 0.47 0.50 0.54 0.56 0.53 0.50 0.44 0.38 0.47 0.48 0.45 0.45 0.42 0.43 0.43 0.42 0.39 0.41 0.47 0.47 0.35 0.34 0.35 0.36 0.37 0.36 0.35 0.35 0.36 0.37 0.37 0.38 0.40 0.42 0.42 0.42 0.42 0.44 0.48 0.52 0.55 0.57 0.58 0.59 0.62 0.72 0.72 0.76 0.86 0.97 1.05 1.04 1.09 1.16 1.12 1.17 1.20 1.19 1.18 1.26 1.25 1.22 1.24 1.30 1.30 1.28 1.28 1.28 1.29 1.29 1.27 1.30 1.29 1.28 1.26
0.48 0.46 0.45 0.36 0.42 0.31 0.33 0.35 0.32 0.40 0.41 0.41 0.39 0.43 0.49 0.44 0.45 0.43 0.33 0.38 0.48 0.49 0.48 0.44 0.43 0.43 0.42 0.42 0.42 0.41 0.44 0.47 0.37 0.30 0.34 0.35 0.36 0.36 0.37 0.37 0.37 0.38 0.40 0.41 0.42 0.43 0.44 0.43 0.46 0.51 0.56 0.59 0.61 0.63 0.62 0.66 0.73 0.77 0.80 0.93 0.92 0.97 1.03 1.10 1.10 1.11 1.13 1.15 1.18 1.21 1.24 1.23 1.22 1.24 1.31 1.26 1.22 1.21 1.23 1.24 1.26 1.28 1.29 1.25 1.25 1.22
0.48 0.38 0.41 0.36 0.34 0.39 0.34 0.32 0.31 0.29 0.25 0.33 0.45 0.52 0.56 0.57 0.55 0.56 0.49 0.41 0.50 0.51 0.53 0.47 0.44 0.44 0.43 0.42 0.40 0.40 0.42 0.35 0.29 0.30 0.32 0.33 0.34 0.34 0.34 0.36 0.37 0.37 0.38 0.37 0.38 0.40 0.41 0.44 0.49 0.53 0.59 0.64 0.65 0.67 0.69 0.72 0.73 0.69 0.66 0.74 0.91 0.88 0.95 1.02 1.04 1.07 1.12 1.12 1.11 1.15 1.21 1.24 1.25 1.23 1.24 1.23 1.19 1.19 1.20 1.23 1.25 1.24 1.25 1.20 1.19 1.18
0.45 0.44 0.43 0.37 0.34 0.36 0.34 0.30 0.29 0.26 0.31 0.43 0.46 0.52 0.54 0.56 0.54 0.53 0.47 0.35 0.48 0.55 0.57 0.54 0.48 0.48 0.47 0.45 0.42 0.41 0.37 0.30 0.28 0.32 0.36 0.47 0.52 0.54 0.53 0.47 0.47 0.46 0.43 0.49 0.51 0.42 0.46 0.56 0.60 0.62 0.63 0.63 0.62 0.65 0.69 0.72 0.78 0.75 0.76 0.77 0.86 0.93 0.98 1.01 1.03 1.04 1.02 1.02 1.11 1.15 1.17 1.24 1.26 1.25 1.22 1.19 1.19 1.17 1.16 1.19 1.19 1.22 1.23 1.22 1.21 1.20
0.38 0.38 0.38 0.34 0.33 0.35 0.35 0.32 0.29 0.35 0.34 0.46 0.52 0.55 0.56 0.57 0.57 0.48 0.28 0.30 0.49 0.57 0.59 0.57 0.53 0.52 0.52 0.52 0.50 0.41 0.36 0.30 0.32 0.39 0.53 0.58 0.61 0.62 0.59 0.55 0.53 0.53 0.53 0.57 0.63 0.65 0.70 0.73 0.72 0.68 0.66 0.64 0.66 0.71 0.69 0.72 0.74 0.77 0.82 0.86 0.93 0.89 0.88 0.96 1.05 1.08 1.08 1.05 1.05 1.04 1.06 1.14 1.22 1.34 1.28 1.20 1.16 1.14 1.16 1.18 1.20 1.22 1.21 1.21 1.22 1.20
0.34 0.35 0.36 0.30 0.32 0.35 0.36 0.34 0.36 0.39 0.48 0.56 0.57 0.60 0.59 0.58 0.51 0.32 0.26 0.38 0.55 0.59 0.61 0.61 0.58 0.60 0.60 0.58 0.57 0.45 0.43 0.43 0.46 0.49 0.53 0.58 0.59 0.62 0.61 0.60 0.59 0.59 0.56 0.54 0.54 0.62 0.65 0.66 0.69 0.72 0.72 0.68 0.66 0.68 0.71 0.71 0.71 0.73 0.77 0.85 0.89 0.93 0.99 1.03 1.08 1.07 1.05 1.03 1.07 1.10 1.08 1.18 1.23 1.18 1.28 1.31 1.12 1.10 1.12 1.17 1.16 1.18 1.19 1.18 1.20 1.20
0.33 0.34 0.34 0.36 0.32 0.33 0.35 0.31 0.30 0.38 0.48 0.57 0.61 0.62 0.60 0.49 0.31 0.31 0.44 0.59 0.61 0.60 0.63 0.64 0.61 0.64 0.67 0.66 0.62 0.61 0.59 0.59 0.59 0.59 0.55 0.55 0.61 0.64 0.69 0.67 0.66 0.65 0.62 0.57 0.59 0.65 0.68 0.69 0.70 0.72 0.70 0.67 0.66 0.68 0.71 0.71 0.70 0.73 0.77 0.82 0.83 0.79 0.87 1.04 1.09 1.09 1.13 1.10 1.05 1.06 1.11 1.13 1.13 1.08 1.08 1.29 1.25 1.08 1.09 1.11 1.13 1.14 1.13 1.13 1.12 1.13
0.33 0.32 0.30 0.30 0.35 0.38 0.35 0.31 0.28 0.24 0.43 0.59 0.61 0.57 0.59 0.43 0.43 0.56 0.59 0.62 0.64 0.63 0.64 0.65 0.67 0.68 0.70 0.66 0.67 0.68 0.67 0.64 0.62 0.60 0.58 0.57 0.55 0.57 0.59 0.60 0.60 0.62 0.63 0.62 0.61 0.63 0.65 0.64 0.66 0.66 0.66 0.68 0.68 0.66 0.65 0.68 0.70 0.69 0.70 0.69 0.74 0.83 0.80 0.85 1.02 1.04 1.02 1.01 1.07 1.05 1.06 1.11 1.14 1.15 1.17 1.19 1.23 1.11 1.00 1.04 1.06 1.08 1.10 1.08 1.06 1.05
0.41 0.32 0.31 0.34 0.42 0.32 0.31 0.28 0.29 0.40 0.51 0.60 0.60 0.47 0.56 0.61 0.65 0.64 0.64 0.58 0.62 0.62 0.63 0.66 0.68 0.71 0.73 0.73 0.73 0.74 0.73 0.68 0.65 0.67 0.65 0.63 0.64 0.65 0.63 0.65 0.66 0.65 0.65 0.66 0.65 0.63 0.64 0.62 0.62 0.63 0.67 0.73 0.73 0.69 0.67 0.66 0.63 0.63 0.63 0.62 0.67 0.74 0.79 0.77 0.83 0.97 0.97 0.92 0.90 0.98 1.04 1.04 1.08 1.15 1.18 1.17 1.17 1.09 0.98 0.98 1.00 1.01 1.00 1.00 1.00 0.99
0.43 0.37 0.39 0.34 0.44 0.39 0.35 0.39 0.48 0.56 0.59 0.64 0.64 0.62 0.68 0.72 0.72 0.70 0.68 0.64 0.58 0.58 0.64 0.65 0.66 0.72 0.75 0.77 0.78 0.79 0.81 0.86 0.83 0.85 0.81 0.79 0.78 0.71 0.69 0.69 0.69 0.68 0.68 0.66 0.65 0.68 0.69 0.66 0.63 0.64 0.65 0.68 0.72 0.73 0.71 0.70 0.65 0.61 0.58 0.58 0.62 0.66 0.75 0.76 0.71 0.75 0.93 0.98 0.93 0.94 1.03 1.15 1.22 1.25 1.19 1.16 1.13 1.04 0.95 0.92 0.93 0.90 0.93 0.94 0.94 0.96
0.48 0.45 0.47 0.44 0.42 0.50 0.54 0.54 0.56 0.54 0.55 0.58 0.64 0.67 0.69 0.69 0.71 0.73 0.69 0.61 0.60 0.61 0.63 0.63 0.66 0.68 0.73 0.78 0.77 0.79 0.81 0.86 0.91 0.91 0.93 0.93 0.90 0.89 0.86 0.82 0.80 0.78 0.76 0.74 0.70 0.69 0.70 0.70 0.69 0.67 0.65 0.66 0.72 0.74 0.74 0.72 0.71 0.65 0.60 0.60 0.61 0.62 0.65 0.71 0.69 0.64 0.74 0.97 1.04 1.01 1.03 1.09 1.18 1.20 1.16 1.16 1.17 1.08 0.95 0.89 0.88 0.86 0.87 0.89 0.90 0.93
0.47 0.46 0.42 0.35 0.40 0.37 0.32 0.46 0.43 0.46 0.53 0.60 0.59 0.63 0.70 0.71 0.66 0.69 0.68 0.65 0.62 0.63 0.62 0.64 0.65 0.67 0.70 0.76 0.78 0.79 0.81 0.86 0.87 0.93 0.95 0.96 0.97 0.96 0.93 0.90 0.88 0.86 0.84 0.81 0.82 0.81 0.77 0.75 0.73 0.70 0.70 0.69 0.71 0.73 0.73 0.72 0.73 0.70 0.68 0.68 0.67 0.65 0.65 0.67 0.70 0.66 0.66 0.80 1.01 1.09 1.07 1.12 1.15 1.17 1.21 1.19 1.15 1.07 0.98 0.94 0.92 0.88 0.86 0.87 0.87 0.89
0.40 0.49 0.40 0.38 0.38 0.33 0.34 0.41 0.45 0.51 0.53 0.62 0.63 0.58 0.62 0.66 0.61 0.64 0.68 0.68 0.64 0.64 0.63 0.62 0.62 0.64 0.68 0.70 0.74 0.77 0.80 0.84 0.87 0.90 0.92 0.94 0.95 0.98 1.00 0.99 0.99 0.99 1.00 0.98 0.96 0.94 0.88 0.85 0.83 0.82 0.81 0.78 0.76 0.77 0.76 0.77 0.75 0.75 0.75 0.76 0.74 0.72 0.77 0.78 0.76 0.74 0.71 0.79 0.94 1.19 1.21 1.22 1.30 1.35 1.23 1.15 1.07 1.00 0.97 0.95 0.93 0.90 0.87 0.85 0.86 0.84
0.45 0.48 0.35 0.39 0.35 0.37 0.42 0.44 0.47 0.51 0.53 0.55 0.59 0.64 0.64 0.62 0.58 0.59 0.63 0.65 0.63 0.61 0.61 0.62 0.61 0.60 0.62 0.64 0.70 0.74 0.76 0.80 0.85 0.89 0.90 0.91 0.94 0.96 1.01 1.05 1.08 1.07 1.08 1.08 1.14 1.08 1.04 0.99 0.95 0.93 0.89 0.85 0.86 0.86 0.83 0.81 0.80 0.81 0.83 0.82 0.80 0.80 0.79 0.77 0.78 0.77 0.81 0.92 0.95 1.06 1.25 1.29 1.28 1.33 1.32 1.12 1.04 1.00 0.95 0.88 0.88 0.89 0.89 0.93 0.92 0.90
0.44 0.37 0.40 0.37 0.32 0.32 0.35 0.38 0.43 0.37 0.36 0.47 0.54 0.60 0.60 0.55 0.54 0.54 0.58 0.60 0.59 0.58 0.58 0.59 0.61 0.61 0.61 0.62 0.64 0.67 0.71 0.76 0.81 0.86 0.87 0.88 0.90 0.94 1.00 1.05 1.07 1.03 1.06 1.13 1.15 1.12 1.09 1.06 1.04 0.97 0.96 0.96 0.96 0.97 0.95 0.90 0.89 0.89 0.86 0.84 0.81 0.80 0.77 0.75 0.75 0.74 0.76 0.85 0.95 1.01 1.18 1.23 1.30 1.32 1.33 1.17 1.06 1.01 1.01 1.04 1.01 0.97 0.93 0.93 0.99 1.00
0.44 0.40 0.38 0.33 0.32 0.32 0.43 0.43 0.47 0.49 0.51 0.53 0.49 0.53 0.57 0.53 0.51 0.49 0.53 0.56 0.55 0.55 0.57 0.58 0.57 0.58 0.58 0.60 0.62 0.61 0.64 0.70 0.74 0.80 0.84 0.86 0.87 0.93 0.99 1.04 1.05 1.08 1.11 1.14 1.13 1.11 1.05 1.05 1.04 1.09 1.15 1.16 1.11 1.09 1.08 1.05 1.01 0.97 0.95 0.89 0.82 0.83 0.86 0.85 0.78 0.74 0.74 0.74 0.73 0.83 0.98 1.12 1.25 1.28 1.35 1.25 1.11 1.04 0.99 0.99 1.06 1.10 1.11 1.08 1.06 1.04
Wind_Speed
9 9 10 11 12 13 15 15 16 17 18 19 19 20 21 22 23 25 26 26 26 27 27 26 27 31 32 31 32 35 37 38 39 43 45 44 44 47 49 49 47 45 44 41 38 36 36 37 36 35 34 34 36 39 40 39 38 37 35 33 31 30 29 28 26 26 27 26 25 24 23 22 22 22 21 20 20 20 19 17 16 14 13 12 11 11
8 11 13 14 15 16 17 17 17 17 17 18 18 19 21 21 22 24 25 26 26 27 29 29 28 28 29 30 30 32 34 35 37 39 42 45 45 45 47 48 48 46 44 42 40 38 36 37 38 37 35 34 35 37 39 39 38 38 36 35 33 32 31 29 27 27 27 27 26 25 24 22 22 22 22 21 21 21 20 18 16 15 14 13 12 11
11 13 15 15 15 15 16 16 16 17 17 17 17 18 19 20 21 23 23 24 24 25 27 30 30 28 29 30 29 29 30 30 34 38 40 43 45 45 44 45 47 46 44 43 42 39 36 36 38 38 38 36 36 37 37 37 38 39 38 36 35 34 33 32 29 27 27 28 27 26 24 23 22 23 23 22 22 22 20 18 17 16 15 13 12 12
14 15 15 13 14 15 15 15 16 17 17 17 17 17 18 18 19 20 21 22 22 23 25 28 30 29 30 31 30 30 32 30 31 35 38 41 43 45 44 43 44 45 44 42 42 42 39 37 38 39 39 38 38 38 38 37 36 38 39 38 37 36 34 33 31 28 28 28 28 26 24 23 23 23 23 23 23 23 21 19 18 17 15 14 13 12
16 17 17 17 17 18 17 17 17 18 18 18 18 17 18 18 19 20 20 21 22 23 24 25 28 30 31 32 31 31 33 34 34 34 36 39 41 42 43 43 44 43 43 41 41 44 43 41 40 41 42 41 39 39 40 39 36 36 39 39 38 37 35 34 32 29 29 29 28 27 25 24 23 23 23 23 23 23 21 19 18 17 16 15 14 13
17 18 18 19 19 18 18 18 18 17 17 18 18 18 19 19 20 20 20 20 20 21 22 23 24 26 30 33 34 32 33 34 36 37 36 37 39 40 39 41 44 44 43 41 40 41 42 41 41 42 43 43 41 40 41 41 38 36 37 39 39 39 37 35 33 30 30 30 29 28 27 25 24 24 24 23 23 23 21 19 18 17 17 15 14 13
16 17 17 18 18 18 19 19 18 18 18 18 17 17 19 20 20 20 20 19 19 19 19 21 23 24 26 30 33 34 35 36 36 38 38 36 36 38 38 38 41 42 42 43 42 41 40 40 40 41 42 43 42 41 41 41 39 37 36 37 39 40 39 37 35 32 31 31 30 29 28 26 25 25 25 24 24 23 21 20 19 18 17 16 15 14
14 16 16 17 18 18 18 18 18 19 19 18 17 18 19 20 20 20 20 18 19 20 21 22 24 24 26 28 30 31 34 37 38 38 39 39 38 37 37 38 40 41 42 43 44 43 42 41 40 40 41 42 42 41 41 41 40 38 36 36 38 40 40 39 37 34 33 32 30 29 28 27 26 26 26 26 25 24 22 21 20 19 17 16 15 14
16 17 17 18 19 18 19 19 18 19 19 19 18 19 20 20 20 20 19 19 19 20 22 23 23 23 25 28 29 30 31 33 36 38 38 39 41 40 38 38 40 42 41 42 43 43 43 43 42 42 42 41 41 42 41 41 41 39 37 36 38 39 40 39 39 37 35 32 31 30 29 28 27 27 27 26 26 25 23 22 21 19 18 17 15 15
17 18 19 20 19 18 20 20 20 19 20 19 19 20 20 20 21 20 20 20 19 20 21 23 22 21 23 25 27 29 31 30 31 36 38 38 41 42 41 39 39 42 42 41 42 43 44 45 44 43 42 42 41 41 42 41 41 40 38 37 38 38 38 39 41 40 36 33 32 31 31 29 29 28 28 27 27 26 24 22 21 20 19 17 16 15
18 19 19 19 19 19 20 20 20 20 20 20 20 20 20 20 20 20 20 20 19 20 22 23 23 23 22 23 25 26 29 30 29 31 35 39 40 42 43 43 41 41 42 41 42 42 43 44 46 45 43 42 41 41 42 42 41 41 39 39 39 38 37 38 40 41 38 34 32 32 32 31 30 29 29 28 28 27 25 23 22 21 19 18 16 15
17 18 17 17 18 19 20 20 19 19 20 20 19 19 19 19 18 18 19 19 18 20 21 21 22 24 22 22 24 26 27 30 30 29 31 36 39 40 42 44 45 44 44 43 43 43 42 42 44 46 45 43 43 42 42 42 41 41 41 40 41 40 38 36 38 41 40 35 33 32 32 32 32 31 30 29 29 27 26 24 22 21 20 18 17 16
16 16 17 17 16 17 19 18 17 17 17 17 17 18 18 17 16 16 16 16 18 20 21 19 19 21 22 22 24 26 28 29 30 30 31 32 34 38 40 42 43 45 45 45 44 45 45 43 43 45 46 44 43 44 44 43 42 42 42 41 41 40 39 36 36 40 41 37 33 32 32 33 33 32 31 30 29 28 26 24 23 22 21 19 17 16
16 15 16 16 15 16 17 17 15 15 15 15 16 16 16 16 15 16 15 15 18 20 21 20 19 19 20 21 22 25 27 28 29 31 32 32 31 33 35 38 40 42 43 44 44 45 46 46 45 45 46 46 44 45 45 44 43 43 43 42 42 40 39 38 36 38 41 39 36 33 33 34 34 33 32 31 30 29 27 25 24 23 22 20 18 17
16 15 15 15 16 17 17 16 16 17 17 17 16 16 18 18 16 16 15 15 17 18 19 19 18 18 19 18 19 21 24 27 30 31 31 31 32 32 33 33 35 38 40 42 43 44 45 47 47 45 46 48 46 45 46 45 44 44 44 44 43 41 40 39 36 36 40 40 37 34 33 34 35 34 33 32 31 29 27 25 24 23 22 20 19 18
16 15 15 18 20 20 20 18 17 18 18 18 17 18 20 19 17 17 19 20 19 18 20 19 18 19 20 18 17 18 21 23 26 30 32 30 29 31 33 33 32 34 37 39 41 42 43 44 46 46 46 48 48 46 46 46 45 45 44 44 45 44 42 40 38 37 40 41 38 35 34 35 35 35 34 33 31 29 28 26 25 24 23 21 19 18
14 16 19 22 22 20 19 19 19 18 17 16 17 18 18 18 17 17 20 21 20 20 21 20 20 22 21 21 20 19 22 24 24 26 30 32 29 27 30 33 32 32 34 37 38 39 41 41 43 46 47 47 48 47 46 46 46 45 45 44 45 45 44 42 39 38 40 41 38 36 36 36 36 36 35 34 32 29 28 27 25 24 23 21 19 18
16 19 21 22 20 17 16 18 19 19 18 17 17 18 18 19 18 17 18 18 18 19 20 20 21 22 20 19 19 19 21 23 25 25 25 32 34 29 27 31 32 31 31 35 38 38 38 39 40 43 45 47 49 48 47 46 46 46 46 45 45 46 45 43 40 39 40 41 38 36 37 37 36 37 36 34 32 30 29 27 26 25 24 22 20 19
17 20 20 18 18 18 18 16 16 17 17 17 17 16 17 17 17 17 17 16 17 18 18 20 21 20 19 18 18 18 18 18 22 25 23 26 33 32 29 30 32 31 28 31 37 38 39 40 41 42 43 46 49 49 47 46 46 46 46 46 46 46 46 44 42 40 41 42 39 37 37 37 37 36 36 35 33 31 29 28 27 25 24 23 21 19
17 17 17 17 19 21 19 15 15 15 14 14 15 15 16 17 17 17 17 16 17 17 18 19 18 17 17 18 17 18 18 18 20 23 22 22 27 31 31 31 33 32 27 28 33 36 38 40 41 42 43 45 47 48 47 46 46 46 46 46 46 46 45 44 43 42 42 43 42 39 38 37 37 37 36 35 33 32 30 28 28 26 24 23 22 20
16 15 16 19 21 20 17 14 14 15 14 13 14 15 15 16 16 17 18 18 18 18 18 17 18 17 15 15 16 16 16 17 19 22 24 23 24 26 28 31 35 36 32 30 31 31 33 36 38 40 42 44 46 47 46 46 46 46 46 46 46 46 45 44 43 42 43 43 42 42 39 37 38 38 36 35 34 32 30 29 28 27 25 24 22 21
15 14 16 20 20 19 18 18 17 17 15 13 14 15 15 15 16 16 17 18 19 19 18 17 18 18 16 14 15 16 16 16 17 19 22 24 25 27 26 27 33 38 37 34 34 33 31 32 35 38 39 41 44 46 46 46 46 46 46 46 46 46 46 45 43 42 42 42 43 43 41 38 38 38 37 35 35 34 31 29 28 27 26 25 23 22
15 15 17 18 19 20 21 19 16 14 13 13 15 15 14 15 15 15 16 18 18 18 18 17 17 18 16 13 12 13 15 16 17 18 19 21 24 27 28 25 27 35 39 38 38 38 35 33 34 36 39 40 41 44 46 46 46 46 46 46 46 46 46 46 45 43 42 42 43 44 43 40 39 39 38 36 35 35 32 30 29 28 27 25 24 23
15 15 16 18 19 20 18 15 14 13 12 14 15 15 14 14 14 15 17 18 17 17 16 15 17 17 14 11 11 13 14 15 17 19 21 21 21 24 28 26 24 29 37 39 40 41 40 38 36 36 38 40 41 43 44 45 46 46 46 46 46 46 47 47 46 45 44 43 44 44 43 42 39 39 39 37 36 36 33 31 29 29 27 26 24 23
15 15 16 19 20 19 16 14 14 14 14 15 15 15 15 15 15 16 17 17 16 16 16 16 17 16 13 12 13 14 14 14 16 17 19 21 21 21 23 25 25 28 33 38 39 40 40 39 38 37 38 39 41 43 44 45 46 46 46 47 46 46 47 47 47 46 46 45 44 44 44 43 41 39 39 38 37 37 35 32 31 29 28 27 25 24
15 16 16 17 19 19 18 17 17 17 17 17 16 16 16 16 16 15 14 14 14 15 15 17 17 18 16 15 14 15 15 14 15 15 17 19 19 19 20 23 25 26 30 35 37 38 38 37 37 38 38 38 40 42 44 45 46 46 46 46 47 46 46 47 47 46 47 46 46 46 45 44 42 41 39 38 38 37 36 34 32 31 30 28 26 26
16 16 16 17 18 18 18 20 21 20 20 19 19 19 18 18 17 15 13 14 14 14 15 16 17 19 18 16 15 16 15 14 14 14 15 16 17 17 17 20 22 23 27 31 33 34 35 35 35 36 36 36 37 40 43 45 45 45 45 46 47 46 46 47 47 47 47 48 47 46 46 45 44 42 40 39 38 38 37 36 34 32 31 29 27 26
16 16 18 18 18 18 20 22 23 22 21 21 21 20 19 19 18 15 14 15 15 14 15 15 16 17 16 15 16 15 14 13 13 13 13 15 16 16 17 19 20 22 25 28 32 34 34 34 34 34 35 35 35 38 41 44 45 45 45 46 46 47 47 47 47 47 47 48 47 47 47 46 44 43 41 40 40 39 38 37 36 34 32 31 29 27
15 16 18 20 20 20 20 21 22 22 21 20 20 20 19 19 18 16 16 17 16 15 15 16 17 18 17 16 16 14 14 13 11 10 10 14 16 15 17 19 19 20 23 26 31 35 35 35 34 34 35 35 36 37 39 42 44 45 45 46 46 47 47 47 47 47 46 46 46 47 47 46 44 43 42 41 41 41 40 38 37 35 33 32 30 28
15 16 19 21 22 22 20 20 20 20 20 20 20 19 18 18 18 17 17 16 16 16 17 17 19 19 18 17 16 15 15 12 9 8 9 13 16 15 16 17 17 19 21 23 27 31 33 34 34 34 35 36 36 37 37 39 43 44 44 45 46 46 47 47 48 48 46 46 46 46 46 46 45 44 43 42 41 41 41 39 38 36 34 33 32 29
14 17 20 21 21 22 21 21 21 21 20 20 20 18 17 17 17 17 17 16 14 15 16 16 17 17 16 15 16 15 14 11 9 8 9 13 16 16 16 15 15 16 18 20 22 25 27 29 31 32 34 36 36 36 36 37 40 43 43 44 46 47 46 46 48 48 46 45 45 45 45 46 46 44 43 42 41 41 41 40 38 37 35 34 32 31
15 18 20 21 20 21 22 22 22 22 20 20 22 21 18 17 17 18 17 15 13 14 15 13 13 12 11 12 13 13 13 12 11 10 11 14 16 16 16 16 14 14 15 17 19 21 22 25 28 29 31 34 35 36 37 36 37 40 43 43 44 46 46 46 46 47 46 44 43 44 45 45 45 45 44 42 41 41 40 40 39 38 36 34 33 32
16 18 19 20 20 21 23 23 21 20 19 21 25 23 19 18 18 17 16 14 13 13 13 12 10 10 10 10 11 11 11 11 12 12 13 15 17 17 17 17 16 15 15 15 18 20 20 22 24 27 28 31 33 35 37 38 37 38 41 43 43 44 46 46 46 47 47 45 43 43 44 44 45 44 44 43 42 41 41 40 39 38 37 35 34 33
16 17 18 19 18 20 24 23 19 19 20 24 26 23 20 19 17 15 14 14 12 11 11 12 12 11 10 11 12 12 11 11 11 12 13 15 17 18 18 18 18 17 16 16 18 20 20 20 21 24 26 29 32 33 35 38 39 38 38 40 42 42 43 45 46 47 47 46 44 43 42 43 44 44 43 43 42 41 41 41 39 38 37 36 34 34
17 17 17 17 16 19 22 20 18 19 22 25 25 23 21 19 16 14 13 12 12 13 14 13 13 13 12 11 12 13 14 14 13 13 14 15 16 17 19 19 19 18 17 17 18 20 21 21 21 22 24 27 29 31 34 36 38 39 39 39 41 41 41 42 44 46 46 45 44 43 43 43 43 43 43 42 42 41 41 41 39 38 38 37 35 34
16 16 16 16 16 19 19 17 17 18 20 25 27 23 21 19 17 16 13 11 14 16 16 15 15 14 14 13 13 13 15 16 16 16 16 16 16 17 19 20 19 18 18 17 19 21 22 23 23 23 24 26 27 29 32 34 36 38 39 39 41 42 41 41 42 44 45 45 44 44 43 43 43 43 43 42 42 41 41 41 40 39 38 37 36 35
14 15 16 15 15 17 18 16 16 17 20 27 30 26 24 22 20 18 13 11 15 18 17 16 16 16 15 15 14 14 14 15 16 16 17 18 18 18 20 21 20 20 19 19 20 23 24 25 25 26 26 26 27 28 30 32 34 37 38 38 40 42 43 43 42 43 44 45 44 44 44 43 43 43 42 42 42 42 41 41 40 39 38 37 36 35
14 15 16 15 15 17 18 16 16 18 21 26 29 28 25 23 22 19 13 11 17 20 19 17 17 17 17 15 14 13 13 14 14 15 15 17 18 19 20 21 21 21 21 21 22 23 24 25 25 27 27 27 28 29 29 30 32 35 37 37 38 40 42 43 43 43 44 44 44 44 43 43 44 43 43 42 43 42 41 41 40 39 38 37 36 36
15 15 14 14 15 17 18 16 15 17 20 23 27 28 26 24 24 20 13 14 20 22 22 19 16 16 16 16 15 12 10 11 13 13 12 12 13 15 18 19 20 21 21 21 22 22 23 23 24 27 28 29 30 30 31 31 32 34 36 36 36 39 42 43 43 43 44 44 45 44 43 43 44 44 44 43 42 42 41 40 40 39 38 37 37 36
14 14 14 14 15 17 17 15 13 14 19 21 24 27 27 25 24 20 17 18 22 24 23 20 16 14 15 16 14 10 9 10 12 13 12 12 14 15 17 19 20 21 22 22 23 23 24 24 25 26 28 29 30 30 31 32 33 34 36 36 35 37 40 42 43 42 43 43 44 44 44 43 44 44 44 43 42 41 41 40 40 39 38 38 37 36
13 13 13 14 16 16 16 15 12 13 18 21 24 26 27 24 23 23 21 20 22 24 23 20 18 16 15 14 11 8 9 11 12 14 15 15 16 17 19 20 21 22 23 24 25 25 25 26 26 27 28 28 29 31 32 33 34 36 37 38 38 37 37 40 42 43 42 43 44 45 44 44 44 44 43 43 42 41 41 41 40 39 39 38 37 37
13 13 13 14 15 15 15 14 13 13 17 21 24 25 25 24 24 24 23 21 21 23 24 22 20 19 16 13 11 10 11 11 12 14 15 15 17 18 19 21 21 22 23 24 26 26 26 27 27 27 28 29 29 31 32 33 35 36 37 39 41 40 39 39 41 43 43 43 44 44 45 44 44 44 43 42 42 42 41 41 40 40 39 38 37 37
12 12 12 13 14 14 14 14 13 14 18 22 24 24 23 23 22 22 22 22 22 22 23 23 22 21 19 17 14 13 14 12 11 11 13 15 16 17 18 20 21 22 22 23 25 27 28 28 28 28 29 29 30 31 32 34 35 36 38 39 40 41 41 40 41 42 43 44 44 44 45 45 45 44 43 42 42 43 43 42 41 40 39 39 38 37
11 12 11 12 13 12 13 13 13 14 18 21 22 22 22 22 22 22 23 22 22 23 23 22 22 22 21 20 19 16 14 13 11 11 12 13 14 16 18 19 20 21 22 23 24 26 27 29 29 30 30 30 31 31 32 34 35 36 38 40 40 40 42 42 42 42 43 45 45 45 45 45 45 44 44 43 42 43 43 43 42 41 40 39 38 37
10 11 11 11 11 10 10 12 13 14 17 19 20 20 22 23 23 23 22 22 23 24 24 22 22 22 22 21 21 21 18 14 11 10 11 11 12 13 15 16 18 19 20 22 24 25 27 28 29 30 31 32 32 33 33 33 35 36 38 39 40 40 41 43 43 43 44 45 46 46 45 45 45 45 44 43 43 43 44 43 43 42 41 40 39 38
10 11 11 11 10 9 9 11 13 16 18 20 20 19 21 23 23 22 22 22 24 25 24 23 23 23 22 21 20 21 23 21 16 11 8 9 9 10 10 12 14 15 17 20 22 24 26 28 29 31 32 33 33 34 34 34 35 36 37 38 39 40 42 43 44 44 44 45 46 46 47 47 47 46 45 45 43 43 43 43 43 43 42 41 40 39
11 12 12 11 11 11 11 12 16 18 18 19 20 20 20 22 23 23 22 22 23 24 24 24 23 23 22 21 20 21 22 23 22 19 15 13 11 9 8 9 10 11 14 16 19 22 24 27 29 30 32 33 34 34 35 35 35 36 36 37 38 39 41 42 44 44 45 46 47 47 46 47 47 46 45 45 45 44 43 43 43 43 42 42 41 40
11 12 12 12 12 12 11 14 18 18 16 17 20 20 20 21 23 23 23 22 22 23 24 24 24 24 22 20 21 21 20 21 22 21 19 19 19 16 11 6 7 8 9 12 15 19 21 23 26 28 30 33 34 34 34 35 35 36 36 36 37 38 39 40 41 42 43 46 47 46 46 46 47 46 45 45 45 44 44 44 43 43 43 42 42 41
12 12 12 12 13 12 12 15 18 17 15 17 20 20 20 21 22 23 24 23 23 23 23 23 24 24 23 23 22 21 20 21 21 20 20 20 21 21 17 11 6 5 5 7 9 12 15 17 19 22 26 31 34 34 34 35 35 35 35 36 37 38 38 39 40 40 41 43 44 45 45 46 46 45 44 44 44 45 45 45 44 44 43 43 43 42
11 11 11 12 12 12 14 16 17 16 15 17 19 20 20 21 22 23 24 23 24 24 24 24 23 23 24 24 23 22 21 21 20 19 19 20 21 22 21 17 14 10 7 6 6 4 8 12 13 14 18 25 30 31 32 34 34 34 34 35 36 37 38 38 39 40 41 42 43 44 44 44 44 44 44 44 44 44 45 45 44 44 43 43 43 43
11 11 12 12 12 13 15 16 17 16 15 17 19 19 20 21 21 22 23 23 24 23 23 23 23 23 24 24 23 23 22 21 21 19 18 18 21 23 22 19 18 16 13 10 8 8 5 6 9 8 9 13 19 24 27 29 31 33 33 33 35 36 37 37 38 39 41 42 42 43 43 43 42 43 44 44 43 44 44 43 43 43 43 43 43 42
Wind_Direction
262 274 278 278 279 277 276 275 274 275 277 278 276 274 273 270 269 266 264 262 259 259 256 256 256 248 243 244 244 240 238 236 235 233 231 230 230 229 229 231 230 229 229 228 226 225 224 222 221 219 219 220 219 218 218 216 214 214 214 214 215 215 215 216 215 214 214 215 215 215 215 216 215 213 211 212 214 213 214 216 218 223 230 233 237 245
260 274 280 281 281 279 279 279 282 283 281 280 277 275 272 269 271 270 268 264 259 258 254 252 258 253 244 244 245 241 236 235 234 233 232 230 230 229 228 229 229 228 228 227 225 225 224 221 220 218 218 219 217 216 216 216 216 216 216 215 216 216 216 216 215 214 214 215 216 216 217 216 215 214 212 212 213 213 215 217 218 222 230 235 240 247
267 277 281 280 281 281 281 279 279 281 280 280 278 276 274 270 272 273 271 268 260 256 254 252 253 253 248 247 246 241 236 236 235 233 233 231 229 228 228 228 227 226 226 225 223 222 222 220 220 219 217 217 215 214 215 216 217 217 217 217 217 217 218 217 215 215 214 215 216 217 218 215 213 214 214 213 213 213 216 219 218 222 231 237 241 248
273 279 283 285 287 286 282 278 276 278 278 278 276 274 274 273 274 275 273 271 265 259 258 255 251 250 248 246 245 241 238 238 237 235 234 233 229 227 228 227 224 223 224 225 222 221 222 221 221 219 217 216 216 216 216 216 216 216 217 217 217 218 218 217 216 215 214 214 216 218 218 214 212 214 215 215 214 213 216 218 217 222 231 236 241 247
275 279 283 285 288 285 279 275 275 278 278 275 272 271 273 274 275 277 277 277 274 266 262 260 255 249 246 245 243 241 239 239 240 238 236 234 230 226 227 225 222 222 223 224 222 221 223 223 222 221 218 217 217 218 218 217 217 216 216 217 217 218 217 217 216 214 212 213 216 217 217 215 213 213 214 215 213 211 214 216 217 223 231 236 241 245
280 284 286 284 284 283 280 277 273 274 277 275 272 269 271 274 275 275 276 277 275 268 259 256 256 251 245 244 243 240 239 240 239 238 237 235 229 226 225 222 221 222 222 223 223 222 222 222 221 220 218 217 217 218 218 218 217 216 216 216 217 218 217 216 214 213 212 212 215 216 216 215 213 211 212 213 210 210 213 216 219 224 230 235 240 243
285 286 287 286 284 282 281 279 275 273 274 274 274 273 272 274 277 277 276 274 272 271 264 255 254 254 248 244 243 241 240 241 239 237 236 234 229 226 224 221 220 221 222 223 224 223 221 220 218 217 217 217 217 217 217 217 217 216 215 216 217 217 217 216 214 213 211 212 214 215 215 215 215 213 213 212 212 213 216 218 220 224 229 234 239 242
291 288 287 286 284 282 280 278 276 273 273 274 275 276 276 277 279 278 276 275 273 272 270 261 255 255 251 246 246 244 240 240 239 237 234 231 229 228 226 222 219 220 222 224 224 223 220 218 217 216 216 216 215 215 216 216 216 216 216 216 217 217 216 217 216 213 210 211 214 215 214 215 216 216 213 212 213 215 216 219 220 223 228 233 237 240
297 293 292 291 287 284 282 281 278 274 272 275 276 275 275 276 277 275 273 273 275 273 269 261 256 256 252 247 246 246 243 240 237 235 233 229 228 229 227 224 221 221 222 224 224 222 219 218 217 216 215 214 214 214 215 215 216 218 217 216 217 216 216 217 217 214 210 211 214 215 215 215 216 216 214 213 213 214 216 218 219 222 227 231 235 238
296 295 294 294 291 287 285 283 279 275 273 276 278 277 275 274 273 272 270 270 271 270 267 260 256 257 257 250 246 244 243 242 236 232 231 229 228 228 227 225 223 222 222 224 224 222 220 218 217 216 215 214 214 215 215 216 216 217 216 215 215 215 216 217 216 214 212 211 214 215 215 215 216 216 216 214 214 214 216 218 219 222 226 230 234 238
295 296 295 292 288 287 288 286 279 275 276 278 278 277 277 275 271 269 268 268 268 265 264 261 256 258 261 255 248 243 240 240 239 233 229 228 228 227 226 227 226 224 223 224 224 222 221 219 217 216 215 214 215 216 215 215 216 215 215 215 215 215 216 216 215 213 212 212 215 216 215 215 216 217 216 215 215 215 216 218 219 221 225 228 234 238
300 300 300 295 288 286 287 285 280 276 278 279 276 275 278 276 273 271 267 263 261 263 265 263 258 257 260 258 253 247 241 238 238 236 229 226 227 227 226 227 228 227 226 225 224 222 222 220 218 217 216 215 214 214 214 214 215 215 215 215 215 216 216 216 214 212 211 214 216 215 215 216 216 217 216 215 215 215 216 219 219 220 224 228 233 239
309 307 308 305 300 297 289 282 280 277 276 277 274 272 273 275 274 271 267 261 259 264 267 265 260 258 259 261 257 251 245 239 235 235 233 229 227 226 226 226 226 226 227 226 223 222 222 221 219 217 216 215 214 214 214 213 214 215 215 214 215 216 215 215 215 213 212 215 216 214 215 216 217 217 217 216 216 216 217 219 218 219 223 227 232 238
315 314 315 313 312 310 296 284 280 280 278 276 274 271 268 271 274 272 270 266 264 267 268 263 260 260 260 262 260 254 248 242 238 234 233 233 231 226 224 224 225 225 225 224 222 222 222 221 220 219 217 216 215 215 214 213 213 214 214 215 215 216 215 215 215 214 212 214 216 215 215 216 216 217 217 216 216 216 218 220 219 219 223 227 232 238
318 316 319 320 317 311 299 287 283 282 280 276 275 274 269 269 271 273 274 272 273 277 275 265 259 258 261 264 262 257 249 244 242 238 234 234 232 228 225 224 224 225 224 222 221 220 220 220 220 219 217 216 215 214 214 214 213 213 214 216 216 216 215 214 215 214 213 213 215 216 216 216 216 216 216 216 216 217 218 219 220 221 224 228 232 238
315 309 318 321 314 305 294 287 287 285 281 279 276 270 267 269 271 270 270 273 279 282 274 266 262 262 266 269 266 260 254 248 244 242 239 235 231 229 228 226 225 224 222 221 220 219 219 219 219 218 217 216 215 214 215 214 214 214 215 216 217 217 215 214 214 214 213 212 214 217 217 216 215 215 215 216 216 217 218 219 220 221 224 229 234 238
317 309 318 321 314 307 293 283 283 282 284 286 279 271 271 275 278 275 273 274 277 275 269 265 266 267 267 268 265 261 258 252 245 242 239 234 231 231 228 225 225 223 221 220 219 218 217 217 217 217 216 216 216 215 215 214 215 215 215 216 217 217 216 215 215 215 213 212 214 217 217 216 215 214 214 215 216 217 217 219 221 223 225 229 233 237
323 315 320 321 317 320 312 295 284 276 277 282 278 279 282 279 275 272 274 277 276 273 270 267 266 266 264 264 262 258 256 250 242 240 241 234 230 230 228 224 222 222 223 221 217 215 216 217 217 216 216 216 216 215 215 215 216 216 216 216 217 217 216 215 215 216 215 213 213 216 216 215 214 213 213 215 216 216 217 219 221 223 225 228 232 237
328 320 322 326 322 326 325 311 298 284 276 277 279 284 285 280 274 268 269 275 277 277 275 270 266 263 262 263 263 258 255 252 242 238 244 238 228 226 228 226 222 222 224 221 216 216 218 219 219 218 216 215 214 215 215 216 216 216 216 217 217 217 217 216 217 217 215 213 213 215 215 215 214 213 213 214 216 216 216 218 220 222 225 227 232 236
328 321 321 328 327 326 324 314 308 303 291 285 289 290 284 278 276 272 271 272 275 278 276 272 268 265 264 265 267 263 256 254 246 237 241 240 229 226 229 228 224 222 223 219 215 217 218 219 219 218 216 214 213 214 215 215 216 215 215 216 216 216 216 216 216 216 215 214 214 215 214 214 213 213 213 213 215 216 217 218 220 222 224 227 231 236
328 320 317 325 327 325 324 321 315 308 301 296 295 294 290 283 279 278 275 270 273 276 273 270 268 265 268 269 269 269 263 257 250 241 238 239 234 231 232 232 227 224 224 220 215 215 215 215 216 215 215 214 214 214 214 215 215 215 214 215 215 215 216 216 216 216 215 214 215 215 214 213 213 213 214 214 215 216 218 219 221 222 224 227 231 234
330 324 318 323 328 326 321 319 313 305 300 298 297 297 297 293 288 282 276 275 277 275 267 267 267 264 269 276 271 268 265 259 255 246 239 238 239 238 236 237 231 224 223 221 216 215 214 213 214 214 215 215 214 214 214 214 215 214 214 214 215 215 216 216 216 215 214 213 214 214 214 214 213 213 214 216 217 217 218 220 221 222 225 227 231 234
331 327 322 322 325 323 319 320 322 316 308 301 299 301 301 298 289 279 281 289 288 275 264 263 265 263 268 275 275 273 267 260 258 253 245 243 245 241 237 240 237 226 222 222 220 218 218 218 217 216 216 216 215 214 214 214 214 214 214 214 215 215 215 215 215 215 213 213 213 214 214 214 214 213 215 217 217 217 218 220 221 223 225 226 230 235
334 330 325 324 326 326 325 332 339 335 322 308 303 304 304 301 293 282 287 298 294 276 264 260 259 259 263 269 276 280 274 265 261 258 252 248 246 242 237 239 243 232 222 221 221 219 220 221 220 218 217 218 217 215 214 214 214 214 213 213 214 215 215 214 215 214 214 213 213 214 214 214 214 214 216 217 218 218 219 221 222 223 225 226 230 235
337 334 330 329 333 336 335 337 337 331 325 317 308 306 305 304 302 294 292 296 291 274 262 257 256 255 261 274 280 279 275 270 266 261 255 249 243 242 239 236 243 240 225 218 218 217 217 220 219 218 218 218 219 217 215 214 213 213 213 212 213 215 215 215 215 215 214 214 214 214 214 215 215 215 216 218 219 219 220 221 222 224 225 227 230 234
339 335 333 331 334 337 334 330 329 325 320 315 308 305 303 303 305 303 298 295 290 278 263 256 256 259 265 275 280 276 272 271 269 264 257 248 240 239 236 233 241 240 223 214 214 213 214 217 218 218 217 217 218 217 214 213 213 213 213 213 213 215 216 216 216 216 215 215 215 215 215 216 216 216 217 218 219 220 221 222 223 224 226 228 231 233
342 336 332 328 325 327 325 324 326 324 316 310 307 305 303 302 303 304 302 295 290 285 272 261 261 265 267 272 275 277 277 272 269 270 259 244 237 234 230 232 238 234 219 212 212 212 214 216 216 216 215 215 217 216 213 212 212 213 213 213 214 215 216 217 217 217 217 216 216 216 216 216 217 217 218 218 219 221 222 223 224 225 227 229 231 233
341 338 336 330 323 322 321 321 324 323 315 309 306 305 306 307 305 302 298 296 294 287 275 266 268 269 268 272 275 277 279 274 268 271 258 236 230 228 227 233 237 230 221 217 215 214 215 216 215 215 215 215 216 215 213 212 213 214 214 214 214 214 216 217 217 218 217 215 216 217 217 217 218 218 219 219 220 221 223 224 224 225 228 229 231 233
341 339 341 337 331 329 326 323 324 324 319 313 308 305 307 310 310 305 298 297 296 288 277 273 273 270 268 273 273 270 276 277 269 264 245 223 221 226 226 230 233 227 223 225 223 219 217 217 217 215 215 216 217 216 214 212 213 214 214 214 214 214 216 216 217 218 219 216 215 216 217 217 218 218 219 220 220 221 223 224 225 226 228 229 231 234
345 341 344 342 336 335 336 334 333 332 328 321 313 309 310 312 315 314 309 303 298 291 286 280 275 271 268 269 269 269 274 272 257 246 232 217 218 221 219 220 224 222 220 223 223 218 215 216 216 215 215 216 216 216 215 213 212 213 214 213 213 214 215 217 217 218 220 218 215 215 216 217 218 219 220 220 221 222 224 225 225 227 229 230 231 233
348 344 347 347 342 342 346 350 349 347 342 336 329 324 320 319 321 322 319 313 304 300 298 290 280 275 269 264 264 267 270 260 238 230 225 215 214 215 213 214 217 216 214 212 211 209 210 212 214 214 214 214 214 215 215 213 213 213 213 213 213 214 215 216 216 218 220 219 216 215 217 217 217 219 220 221 221 222 223 225 226 227 229 230 231 233
344 343 347 350 347 348 354 358 357 354 353 353 348 339 327 321 321 321 318 315 310 310 312 305 292 281 271 265 265 265 262 252 240 233 224 214 212 213 211 211 214 216 214 210 206 205 207 211 212 212 213 213 214 215 215 214 214 213 214 214 213 214 215 216 217 218 220 221 218 216 216 217 217 219 220 221 221 222 223 224 225 226 228 230 231 232
339 339 344 349 347 347 353 359 359 357 0 1 356 347 335 327 324 321 318 317 316 316 318 318 311 299 280 269 270 268 260 255 248 240 229 220 218 217 215 217 221 221 216 212 210 208 208 209 211 212 213 213 214 215 215 215 214 214 215 216 215 215 216 216 217 218 220 222 221 218 216 217 218 219 220 221 221 222 223 224 225 226 227 229 231 232
338 336 340 346 345 344 350 356 1 5 7 3 357 354 349 340 334 330 326 325 326 327 326 324 321 315 296 272 267 266 263 261 257 247 236 226 222 222 223 226 229 227 222 219 215 211 209 209 210 212 213 214 215 216 216 215 215 214 214 214 215 216 216 216 217 218 219 220 221 220 218 218 218 219 220 221 221 222 223 224 225 226 227 229 230 231
338 339 341 345 343 342 348 356 5 10 10 5 1 1 357 350 344 340 335 338 345 342 335 330 326 321 312 290 273 265 262 262 259 250 241 232 226 224 223 225 228 230 230 225 219 216 215 215 215 215 215 215 216 217 216 215 215 214 214 214 215 216 217 217 217 217 218 219 219 220 220 219 219 219 220 220 222 222 223 224 225 226 227 229 230 231
336 341 344 345 345 346 349 357 6 8 7 7 6 6 5 3 357 349 345 357 1 350 337 329 322 318 315 305 290 275 267 264 256 247 241 236 232 230 226 226 230 232 231 226 223 223 223 222 221 220 218 217 217 217 216 216 216 216 216 216 216 217 218 219 218 218 217 218 219 219 219 220 220 220 220 220 221 222 223 224 225 226 227 229 230 231
335 340 343 344 349 350 348 351 1 4 7 9 9 8 7 7 1 351 345 352 355 348 337 326 318 315 315 308 297 286 276 266 253 243 239 237 236 234 231 231 234 234 233 231 228 227 227 227 226 224 221 221 220 219 217 216 217 217 217 217 217 218 218 218 218 219 218 218 219 219 219 220 221 221 220 221 222 223 223 224 225 226 227 229 230 231
341 344 344 344 349 351 348 351 1 5 6 9 7 5 5 4 1 357 355 356 355 348 338 328 316 313 313 308 301 293 280 262 247 239 239 238 236 234 232 231 233 234 235 235 232 229 228 228 226 224 223 222 222 222 220 219 218 218 218 219 219 218 219 219 219 219 218 219 219 220 220 221 221 221 221 221 222 223 223 224 225 226 227 228 229 230
345 349 350 350 352 353 352 356 5 6 6 5 4 4 5 3 1 4 8 8 3 354 345 336 322 313 311 307 301 293 277 259 244 236 237 241 239 236 233 232 232 234 236 235 233 230 229 229 227 225 224 223 223 223 223 222 221 219 219 220 219 218 219 220 219 219 219 220 220 220 221 222 221 221 221 221 222 223 223 224 225 226 227 228 229 230
346 350 353 355 355 355 355 358 5 7 3 1 1 4 4 1 3 11 14 7 1 358 354 348 339 328 319 313 306 289 266 258 247 239 244 249 248 244 241 238 238 239 239 237 234 232 231 231 229 227 226 225 224 224 224 223 223 221 220 221 221 220 220 220 220 220 219 220 220 221 222 222 222 222 221 221 222 223 223 224 225 226 226 228 229 230
343 347 352 355 353 352 354 357 1 4 2 360 1 1 0 1 9 16 11 359 354 357 359 358 353 342 330 322 316 295 275 267 256 252 256 256 253 250 247 244 243 244 243 240 237 235 233 232 231 229 228 227 227 226 225 224 224 223 222 222 223 223 222 220 220 220 220 220 220 221 222 222 223 224 224 223 223 223 223 224 225 225 226 227 229 230
340 341 346 351 350 350 355 356 355 359 1 360 359 358 1 9 16 13 4 357 355 357 359 1 359 352 345 337 326 308 301 293 275 266 266 264 258 255 251 248 247 246 244 241 239 238 236 234 232 231 230 229 229 228 227 226 225 224 224 224 224 224 225 223 221 220 220 221 221 221 222 223 223 223 225 225 224 223 223 223 224 225 226 227 228 229
338 336 339 347 349 349 354 355 353 354 354 353 354 359 5 12 12 4 359 0 1 359 1 5 6 4 2 357 340 317 305 302 292 278 273 269 264 260 256 252 250 248 246 242 240 239 238 235 233 232 231 231 230 230 229 228 227 226 226 226 225 224 225 225 224 222 222 222 222 222 223 223 223 223 223 224 223 223 223 224 224 225 226 227 228 229
340 338 335 340 346 348 352 354 352 347 344 347 353 358 1 3 1 357 358 3 6 5 5 8 10 10 10 8 2 347 324 308 299 290 282 275 270 265 262 258 254 251 247 241 239 238 238 236 234 232 232 233 232 231 230 229 229 228 227 227 226 225 224 225 226 225 224 223 223 224 224 223 223 223 222 223 223 223 223 224 225 225 226 227 228 230
339 340 333 332 338 344 345 345 344 341 343 349 353 354 354 354 355 356 357 1 7 9 9 9 10 9 10 12 14 13 7 354 331 305 292 287 281 273 267 262 257 252 248 242 239 238 238 237 236 234 234 234 233 232 231 230 230 230 229 227 227 226 225 225 226 227 226 224 223 224 224 224 223 222 222 222 223 222 223 223 224 225 226 227 228 230
331 336 334 332 334 334 332 335 341 344 348 352 352 352 354 354 354 357 359 2 7 10 10 10 10 8 9 14 17 17 18 18 16 5 343 323 307 290 277 268 259 253 249 245 241 240 239 238 237 236 235 234 234 233 232 231 231 230 229 228 227 226 226 225 226 227 227 225 224 224 224 224 223 223 222 222 222 222 223 223 224 225 226 227 228 229
326 330 331 331 333 333 331 338 344 345 348 351 349 350 355 354 354 357 0 2 6 8 8 10 10 9 11 15 17 16 17 21 24 26 25 17 3 340 306 281 269 261 254 249 246 244 241 239 238 237 236 236 235 234 233 232 232 231 229 228 227 227 227 227 226 227 227 226 224 224 224 224 223 222 222 222 222 223 224 224 224 225 226 227 228 229
321 324 324 325 328 329 330 338 342 340 342 347 346 348 352 352 353 356 358 360 3 5 6 8 11 12 14 13 14 16 19 20 21 22 25 27 25 18 2 317 284 277 269 262 256 248 242 240 238 238 239 238 237 235 234 232 232 231 230 229 228 227 228 227 227 228 228 226 224 224 225 224 222 221 221 222 222 223 224 225 225 226 226 227 228 229
313 318 320 320 321 322 326 334 336 334 335 340 342 346 350 350 351 355 355 356 359 2 3 5 8 11 14 14 14 16 18 18 18 18 19 21 22 22 23 18 355 327 306 299 284 255 241 239 238 240 244 242 237 235 234 232 231 231 230 229 228 227 227 227 227 227 226 225 223 223 224 225 224 222 221 222 223 224 224 225 226 226 227 228 229 230
315 319 321 319 318 319 322 328 332 331 329 333 339 344 346 347 350 353 353 354 357 359 0 2 5 8 11 12 13 15 13 13 12 11 12 15 16 20 26 29 26 18 1 344 342 302 251 240 237 247 254 244 234 231 232 231 230 229 229 228 227 226 226 227 227 227 226 226 225 225 226 228 228 225 223 222 223 224 225 226 227 227 228 229 230 231
320 323 322 321 318 317 318 323 327 325 323 327 333 338 340 342 346 349 350 351 353 355 357 359 2 5 7 8 11 12 10 9 9 9 8 11 14 19 24 26 27 26 23 25 29 18 339 254 231 252 271 246 228 226 229 229 228 227 227 227 228 227 227 228 227 227 228 228 228 227 228 231 232 230 226 224 223 224 224 225 227 229 230 230 231 231